Location: Rio Negrinho
(26.2394°S, 49.4999°W)
Time: 21:02:44
(UTC+00:00)

Cosmos 1844 - Pass Details

Date: 01 October 2020
Orbit: 824 x 866 km, 70.9° (Epoch: 20 October)

Event Time Altitude Azimuth Distance (km) Brightness Sun altitude
Rises 06:59:27 0° 33° (NNE) 3,368 7.0 -26.7°
Reaches altitude 10° 07:04:20 10° 71° (ENE) 2,459 6.8 -25.6°
Maximum altitude 07:05:23 11° 82° (E) 2,429 6.9 -25.4°
Drops below altitude 10° 07:06:26 10° 93° (E) 2,470 7.1 -25.2°
Sets 07:11:22 0° 130° (SE) 3,431 8.0 -24.1°
